Zurück zum Katalog

STARLINK-36698

AktivKommunikationSSO
NORAD 67709·PAYLOAD·🇺🇸 United States

Gestartet Feb 7, 2026 von Vandenberg Space Force Base

Loading…

Nächste Überflüge (nächste 24 Stunden)

TLE

AktuellSource: CelesTrak SupGP

Epoche: Sep 15, 2026, 03:47 UTC

1 67709C 26025S   26258.15812500 -.00002026  00000+0 -62874-4 0  2589
2 67709  97.2859   8.2020 0001335  85.1114 193.7516 15.33441505    19

Verfolge STARLINK-36698 in Echtzeit mit AllMySat

Download on the App Store